sat.trackr.live / text

‹ back to catalog

STARLINK-2371

NORAD 47911 · 2021-021BD

PAYLOAD ACTIVE UNKNOWN

§ Identity

Operator
Country
US
Launch date
2021-03-14
Launch site
AFETR
Launch vehicle
Mass (kg)
RCS (m²)

Purposes: comms

External: N2YO · Heavens-Above · Gunter

§ Orbital elements

Epoch: 2026-09-15T00:41:02.060448Z

Period
93.97 min
Inclination
53.1576°
Eccentricity
0.0000713
Mean motion
15.32337693 rev/d
Perigee alt
468.4 km
Apogee alt
469.3 km
Semi-major
6,847.0 km
B*
1.2699e-3
RAAN
119.8208°
Arg perigee
97.0064°
Mean anomaly
263.1019°
Rev number
30,492

§ Raw data

STARLINK-23711 47911U 21021BD  26258.02849607  .00040048  00000+0  12699-2 0  99912 47911  53.1576 119.8208 0000713  97.0064 263.1019 15.32337693304929

JSON: /api/v1/satellites/47911 · /tle

For live sub-satellite position, see the globe view (requires WebGL).

§ Visibility from observer

Set your observer location to see the next 7 days of passes ≥ 10°. The values pass through the URL so the page stays shareable.

No JS? Fill the form by hand. The geolocation button needs JavaScript.